KB3FCJ-2 Weather Reports


time (UTC)temp
C
wind
direction
speed
KPH
gust
KPH
rain 1hr
cm
rain 24hr
cm
rain mn
cm
humidity
%
barometer
mb
20260505034404 15 0 0.0 0.0 0.00 0.00 0.00 66 829.0
20260505033404 15 0 0.0 0.0 0.00 0.00 0.00 65 829.0
20260505032030 15 0 0.0 0.0 0.00 0.00 0.00 63 829.0
20260505031029 15 0 0.0 0.0 0.00 0.00 0.00 62 829.0
20260505030029 15 0 0.0 0.0 0.00 0.00 0.00 62 829.0
20260505025029 15 0 0.0 0.0 0.00 0.00 0.00 61 829.0
20260505023632 15 0 0.0 0.0 0.00 0.00 0.00 60 829.0
20260505022633 16 0 0.0 0.0 0.00 0.00 0.00 60 829.0
20260505021632 16 0 0.0 0.0 0.00 0.00 0.00 60 829.0
20260505020633 16 0 0.0 0.0 0.00 0.00 0.00 59 829.0
20260505015235 16 0 0.0 0.0 0.00 0.00 0.00 58 829.0
20260505014235 16 0 0.0 0.0 0.00 0.00 0.00 57 829.0
20260505013236 17 0 0.0 0.0 0.00 0.00 0.00 57 829.0
20260505012235 17 0 0.0 0.0 0.00 0.00 0.00 55 829.0
20260505010831 17 0 0.0 0.0 0.00 0.00 0.00 54 829.0
20260505005830 17 0 0.0 0.0 0.00 0.00 0.00 53 829.0
20260505004830 18 0 0.0 0.0 0.00 0.00 0.00 52 829.0
20260505003831 18 0 0.0 0.0 0.00 0.00 0.00 51 829.0
20260505002429 19 0 0.0 0.0 0.00 0.00 0.00 50 829.0
20260505001430 20 0 0.0 0.0 0.00 0.00 0.00 49 829.0
20260505000429 20 0 0.0 0.0 0.00 0.00 0.00 48 829.0
20260504235430 21 0 0.0 0.0 0.00 0.00 0.00 46 829.0
20260504234027 21 0 0.0 0.0 0.00 0.00 0.00 44 829.0
20260504233026 22 0 0.0 1.6 0.00 0.00 0.00 45 829.0
20260504232027 22 0 0.0 3.2 0.00 0.00 0.00 43 944.6
20260504231026 22 0 0.0 1.6 0.00 0.00 0.00 42 944.6
20260504225632 22 0 0.0 1.6 0.00 0.00 0.00 43 944.6
20260504224632 22 0 0.0 1.6 0.00 0.00 0.00 43 944.6
20260504223632 22 0 0.0 6.4 0.00 0.00 0.00 43 944.6
20260504222632 22 0 0.0 19.3 0.00 0.00 0.00 41 944.6
20260504221311 23 213 3.2 9.7 0.00 0.00 0.00 41 944.6
20260504220310 22 235 1.6 12.9 0.00 0.00 0.00 40 944.6
20260504215311 22 0 0.0 19.3 0.00 0.00 0.00 44 944.6
20260504214311 22 222 1.6 16.1 0.00 0.00 0.00 41 944.6
20260504213311 22 0 0.0 16.1 0.00 0.00 0.00 42 944.6
20260504212311 22 217 4.8 17.7 0.00 0.00 0.00 42 944.6
20260504210911 22 212 3.2 12.9 0.00 0.00 0.00 41 944.6
20260504205912 23 232 1.6 11.3 0.00 0.00 0.00 40 944.6
20260504204912 23 227 6.4 12.9 0.00 0.00 0.00 39 944.6
20260504203912 23 0 0.0 9.7 0.00 0.00 0.00 39 944.6
20260504202513 22 0 0.0 12.9 0.00 0.00 0.00 41 944.6
20260504201513 23 0 0.0 8.0 0.00 0.00 0.00 40 944.6
20260504200513 22 205 1.6 16.1 0.00 0.00 0.00 41 944.6
20260504195513 22 225 9.7 19.3 0.00 0.00 0.00 42 944.6
20260504194116 22 217 3.2 16.1 0.00 0.00 0.00 42 944.6
20260504193116 22 0 0.0 11.3 0.00 0.00 0.00 41 944.6
20260504192116 22 204 8.0 16.1 0.00 0.00 0.00 43 944.6
20260504191116 21 189 1.6 16.1 0.00 0.00 0.00 41 944.6
20260504185720 21 0 0.0 16.1 0.00 0.00 0.00 44 944.6
20260504184719 21 205 8.0 17.7 0.00 0.00 0.00 45 944.6
20260504183719 22 0 0.0 8.0 0.00 0.00 0.00 41 944.6
20260504182719 22 205 4.8 11.3 0.00 0.00 0.00 43 944.6
20260504181322 21 0 0.0 14.5 0.00 0.00 0.00 45 944.6
20260504180322 21 0 0.0 20.9 0.00 0.00 0.00 44 944.6
20260504175322 21 240 8.0 19.3 0.00 0.00 0.00 43 944.6
20260504174322 20 228 1.6 14.5 0.00 0.00 0.00 47 944.6
20260504172933 20 242 8.0 22.5 0.00 0.00 0.00 43 944.6
20260504171933 19 229 1.6 12.9 0.00 0.00 0.00 44 944.6
20260504170933 21 155 1.6 8.0 0.00 0.00 0.00 46 944.6
20260504160152 18 223 6.4 11.3 0.00 0.00 0.00 45 944.6
20260504150759 17 246 1.6 11.3 0.00 0.00 0.00 50 944.6
20260504140401 16 0 0.0 1.6 0.00 0.00 0.00 60 944.6
20260504130615 13 215 6.4 17.7 0.00 0.00 0.00 71 944.6
20260504120219 10 0 0.0 8.0 0.00 0.00 0.00 81 944.6
20260504081300 6 0 0.0 0.0 0.00 0.00 0.00 70 944.6
20260504060107 8 0 0.0 1.6 0.00 0.00 0.00 58 944.6
20260504050336 10 219 3.2 9.7 0.00 0.00 0.00 54 944.6
20260504045335 10 0 0.0 3.2 0.00 0.00 0.00 54 944.6
20260504044336 10 0 0.0 6.4 0.00 0.00 0.00 54 944.6
20260504043335 10 0 0.0 11.3 0.00 0.00 0.00 55 944.6
20260504041941 10 0 0.0 6.4 0.00 0.00 0.00 54 944.6
20260504040941 9 0 0.0 3.2 0.00 0.00 0.00 55 944.6
20260504035941 9 0 0.0 4.8 0.00 0.00 0.00 56 944.6